{"data":{"norad_id":56452,"epoch":"2026-05-24T20:53:53.128320Z","epoch_age_seconds":89442,"freshness":"FRESH","line1":"1 56452U 23064E   26144.87075380  .00000054  00000+0  12325-4 0  9997","line2":"2 56452  69.9987 312.5201 0002560 269.9921  90.0944 14.98329438166658","mean_motion":14.98329438,"eccentricity":0.000256,"inclination_deg":69.9987,"raan_deg":312.5201,"arg_perigee_deg":269.9921,"mean_anomaly_deg":90.0944,"bstar":1.2325e-5,"rev_number":16665,"period_min":96.107035173929,"perigee_km":570.2783790586,"apogee_km":573.83687870859,"semimajor_km":6950.1946288836,"source":"CELESTRAK","updated_at":"2026-05-25T13:38:18.066620Z"}}